Gold Country Challenge - Two Day Inventory

Station: Loft Fly - T Race

Distance: 0.3 Miles    

Release: 04-Jun-2018 09:45

Weather Release: Hand Scan    Arrival: Hand Scan

Wind at Release:     Wind at Arrival:

Temp at Release: °    Temp at Arrival: °

Lofts: 88

Birds: 413

Clocked: 373

Two Day Inventory - Pulling 10th Flight on Most Birds + Hand Scan
Drops Pos Breeder Pigeon Name Color Sex Ent Arrival Speed To Win Eligible Champ
1 Loizzi - Sikora - CA 2517-AU18-FVC BB H 1 09:49:11.60 125.914 00:00:00 Yes
2 G & L Loft - OR 3120-AU18-WPC BCSP H 1 09:51:51.70 76.949 00:02:40 Yes
3 O'brien & Ellis - CA 8413-AU18-SWI BBPD H 1 09:52:50.40 67.347 00:03:39 Yes
4 Utaz Team - UT 1388-AU18-DUTC BBSP H 1 09:53:28.30 62.325 00:04:17 Yes
5 Luisi/Tapia - NM 18002-AU18-TAP BB H 1 09:54:29.90 55.589 00:05:18 Yes
6 Chala Loft - WA 18562-AU18-EVE BC H 1 09:55:16.30 51.404 00:06:05 Yes
7 Silicon Valley Syndicates - CA 1812-AU18-WSJ DC H 1 09:55:50.60 48.694 00:06:39 Yes
8 Frank Gonsalves - CA 0507-AU18-AA BB H 1 09:56:31.30 45.827 00:07:20 Yes
9 A P C Loft - TX 18231-AU18-APC BB H 1 09:57:18.90 42.875 00:08:07 Yes
10 Nanez Family Lofts - WI 8221-AU18-NANE BB H 1 09:57:59.10 40.662 00:08:48 Yes
11 John Partridge - CA 1004-AU18-PASO H 1 09:58:40.00 38.634 00:09:28 Yes
12 Gomez Loft - CA 0161-AU18-CHP BB H 1 09:59:31.00 36.372 00:10:19 Yes
13 Yang Family Racing - CA 0009-AU18-YS 900 X 1482701 BB H 1 10:00:18.60 34.487 00:11:07 Yes
14 Doucet Lofts - CA 46002-AU18-ARPU Frenchman’s Pride BB H 1 10:05:58.80 25.167 00:16:47 Yes
15 Blue - Face - CA 1902-AU18-FVC BC H 1 10:06:32.10 24.518 00:17:21 Yes
16 Genesis Syndicate Loft - AZ 0361-AU18-GEN BC H 1 10:07:11.20 23.798 00:18:00 Yes
17 Ken Chin - CA 0684-AU18-HAY BC H 1 10:07:50.90 23.109 00:18:39 Yes
18 Gomez Loft - CA 0177-AU18-CHP BB H 2 10:08:20.90 22.614 00:19:09 Yes
19 Frank Gonsalves - CA 0515-AU18-AA BC H 2 10:09:17.20 21.740 00:20:06 Yes
20 B S Lofts - CA 0818-AU18-BSL ® 36 & 227 BB H 1 10:09:59.70 21.124 00:20:48 Yes
21 A P C Loft - TX 18235-AU18-APC BB H 2 10:17:16.40 16.360 00:28:05 Yes
22 Evolution One Loft - UT 6044-AU18-OGN BC H 1 10:18:08.60 15.931 00:28:57 Yes
23 Genesis Syndicate Loft - AZ 0368-AU18-GEN DC H 2 10:18:44.60 15.648 00:29:33 Yes
24 John Hedderson - CA 0805-AU18-HEDD BC H 1 10:19:37.10 15.252 00:30:26 Yes
25 Lechuga Loft - TX 0135-AU18-AMA BB H 1 10:20:15.60 14.974 00:31:04 Yes
26 Silicon Valley Syndicates - CA 1816-AU18-WSJ BC H 2 10:20:50.30 14.733 00:31:39 Yes
27 Skylinerpl.Com - UT 1044-AU18-UVI "Miss Utah" BC H 1 10:21:26.50 14.489 00:32:15 Yes
28 Skylinerpl.Com - UT 1019-AU18-UVI "Golden Checker" BC H 2 10:23:20.50 13.771 00:34:09 Yes
29 P N W Challenge - ID 0130-AU18-PNWC Pair#18 BBWF H 1 10:24:00.80 13.534 00:34:49 Yes
30 Doucet Lofts - CA 46015-AU18-ARPU Petite Cherie BB H 2 10:24:38.10 13.322 00:35:26 Yes
31 Refrieddreamsrpl - AZ 1173-AU18-ARZ BC H 1 10:25:56.60 12.896 00:36:45 Yes
32 Ken Chin - CA 0522-AU18-HAY SLT H 2 10:26:38.70 12.679 00:37:27 Yes
33 Jactions Loft - CA 0811-AU18-AA BB H 1 10:27:20.50 12.470 00:38:09 Yes
34 K C Loft - CA 0678-AU18-FMT BBSP H 1 10:27:54.90 12.303 00:38:43 Yes
35 Luisi/Tapia - NM 18001-AU18-TAP BB H 2 10:28:30.20 12.137 00:39:19 Yes
36 Scrub Family Loft - MN 0100-AU18-UNIT BBWF H 1 10:29:10.30 11.953 00:39:59 Yes
37 A P C Loft - TX 18186-AU18-APC BB H 3 10:29:49.30 11.780 00:40:38 Yes
38 Chala Loft - WA 18565-AU18-EVE BC H 2 10:30:34.30 11.586 00:41:23 Yes
39 John Hedderson - CA 0801-AU18-HEDD BB H 2 10:31:14.50 11.418 00:42:03 Yes
40 Nemelka Racing Pigeon Loft - UT 8021-AU18-NRPL deBelsar2 x Splendiferous BB C 1 10:32:00.40 11.232 00:42:49 Yes
41 P N W Challenge - ID 0713-AU18-DA Pair#J BB H 2 10:32:36.30 11.091 00:43:25 Yes
42 Flyhome Loft - CA 1807-AU18-FLYH BB H 1 10:33:29.40 10.889 00:44:18 Yes
43 G & J Lofts - CA 3001-AU18-AA Amanda Part Deux BB H 1 10:34:13.50 10.726 00:45:02 Yes
44 Utaz Team - UT 0178-IF18-PSC BB H 2 10:34:49.70 10.596 00:45:38 Yes
45 Ken Chin - CA 0042-AU18-HJ BBSP H 3 10:35:27.10 10.465 00:46:16 Yes
46 Perfection 2 - KS 1713-AU18-TCH BB H 1 10:36:21.60 10.280 00:47:10 Yes
47 Apr Loft - CA 2073-AU18-SFR Princes Anne DC H 1 10:36:58.00 10.160 00:47:47 Yes
48 Sierra Ranch - CA 0847-AU18-SR Sweet Pattie BB H 1 10:37:43.50 10.014 00:48:32 Yes
49 Dan And Greg Coury - AZ 0824-AU18-PEGA BB H 1 10:38:24.60 9.886 00:49:13 Yes
50 All In - CA 1677-AU18-BON BB H 1 10:38:59.60 9.779 00:49:48 Yes
51 Fleet Washington - DC 1833-AU18-FLET BC H 1 10:39:48.00 9.635 00:50:36 Yes
52 Doucet Lofts - CA 46013-AU18-ARPU Lebeau BB H 3 10:40:37.90 9.491 00:51:26 Yes
53 P N W Challenge - ID 0100-AU18-PNWC Pair#14 BC H 3 10:41:24.40 9.361 00:52:13 Yes
54 Jactions Loft - CA 0821-AU18-AA BBWF H 2 10:42:12.70 9.229 00:53:01 Yes
55 A P C Loft - TX 18222-AU18-APC BB H 4 10:47:07.00 8.500 00:57:55 Yes
56 Sugar+onni Loft - CA 0770-IF18-HBG BB H 1 10:47:53.70 8.395 00:58:42 Yes
57 Bieu Tran - CA 0007-AU18-TRAN BCWF H 1 10:48:29.80 8.315 00:59:18 Yes
58 K C Loft - CA 0675-AU18-FMT BB H 2 10:55:16.40 7.514 01:06:05 Yes
59 Al Shulman - CA 2704-AU18-WSJ BB H 1 10:56:49.20 7.352 01:07:37 Yes
60 Ron Brooks - AR 1826-AU18-REB DCWF H 1 10:57:23.60 7.293 01:08:12 Yes
61 Racing Pigeon Mall - WA 0803-AU18-RPM BB H 1 10:57:59.20 7.234 01:08:48 Yes
62 Marengo Creek Farms - AL 2920-AU18-MCF BB H 1 10:58:37.20 7.172 01:09:26 Yes
63 Dan And Greg Coury - AZ 0240-AU18-DUTC BB H 2 11:00:18.70 7.011 01:11:07 Yes
64 G & J Lofts - CA 3007-AU18-AA Lady Gray BB H 2 11:00:56.40 6.953 01:11:45 Yes
65 Skychargers - CA 0193-AU18-CORO BCWF H 1 11:01:31.80 6.899 01:12:20 Yes
66 D B Loft - CA 8591-AU18-JEDD never stop BCSP H 1 11:02:11.20 6.841 01:12:59 Yes
67 Perfection 2 - KS 1716-AU18-TCH BB H 2 11:02:44.70 6.791 01:13:33 Yes
68 G & J Lofts - CA 3006-AU18-AA Lil’ Miss Blue BB H 3 11:03:31.10 6.725 01:14:19 Yes
69 Chala Loft - WA 18560-AU18-EVE BB H 3 11:04:26.30 6.647 01:15:14 Yes
70 Dan And Greg Coury - AZ 0210-AU18-DUTC DC H 3 11:05:03.30 6.595 01:15:52 Yes
71 A P C Loft - TX 18227-AU18-APC GRIZ H 5 11:05:40.80 6.544 01:16:29 Yes
72 A P C Loft - TX 18226-AU18-APC BB H 6 11:06:22.70 6.488 01:17:11 Yes
73 Avalos Lofts - CA 54649-AU18-ARPU BB H 1 11:07:05.50 6.432 01:17:54 Yes
74 Flyhome Loft - CA 1804-AU18-FLYH BC H 2 11:08:06.50 6.353 01:18:55 Yes
75 Loizzi - Sikora - CA 2503-AU18-FVC BC H 2 11:08:45.80 6.303 01:19:35 Yes
76 John Hedderson - CA 0806-AU18-HEDD MLY H 3 11:28:01.70 5.125 01:38:50 Yes
77 Ken Chin - CA 0644-AU18-HAY BB H 4 11:31:35.60 4.953 01:42:25 Yes
78 Nemelka Racing Pigeon Loft - UT 8000-AU18-NRPL Kleine Champion x Debacke BB C 2 11:32:14.10 4.924 01:43:02 Yes
79 Loizzi - Sikora - CA 2513-AU18-FVC BBWF H 3 11:33:07.00 4.884 01:43:55 Yes
80 Dan And Greg Coury - AZ 0818-AU18-PEGA BB H 4 11:34:26.80 4.824 01:45:16 Yes
81 Doucet Lofts - CA 46001-AU18-ARPU Jolie Chatin BC H 4 11:35:04.10 4.797 01:45:53 Yes
82 Skychargers - CA 0186-AU18-CORO BLK H 2 11:36:33.80 4.733 01:47:22 Yes
83 Kay Eastwood - CA 0157-AU18-HANG MLY H 1 11:37:31.50 4.692 01:48:20 Yes
84 Jim Lauritzen - CA 0012-AU18-EAV BB H 1 11:38:23.50 4.656 01:49:13 Yes
85 B S Lofts - CA 0819-AU18-BSL ® 9 & 26 BC H 2 11:39:02.60 4.630 01:49:51 Yes
86 All In - CA 0005-AU18-BON BB H 2 11:39:47.80 4.599 01:50:37 Yes
87 California Breeders Syndicate - CA 0115-AU18-HANG D/CH H 1 11:40:35.20 4.568 01:51:24 Yes
88 Bieu Tran - CA 0004-AU18-TRAN BBSP H 2 11:41:21.20 4.538 01:52:09 Yes
89 Fantastic 4 Syndicate - CA 4799-AU18-RR BB H 1 11:42:04.50 4.510 01:52:53 Yes
90 Jactions Loft - CA 0804-AU18-AA BB H 3 11:42:41.70 4.486 01:53:30 Yes
91 Perfection 2 - KS 4501-AU18-AA BB H 3 11:43:39.40 4.450 01:54:28 Yes
92 Irishsyndicatelofts - AZ 0146-IF18-IRIS BB H 1 11:44:55.20 4.403 01:55:43 Yes
93 Al Shulman - CA 2706-AU18-WSJ BC H 2 11:48:15.60 4.284 01:59:03 Yes
94 Fleet Washington - DC 1835-AU18-FLET BC H 2 11:49:14.90 4.250 02:00:03 Yes
95 Ken Chin - CA 0677-AU18-HAY GRIZ H 5 11:59:40.20 3.921 02:10:28 Yes
96 Sierra Ranch - CA 0803-AU18-SR Boots BB H 2 12:02:47.70 3.832 02:13:36 Yes
97 Marengo Creek Farms - AL 2962-AU18-MCF BB H 2 12:03:25.80 3.814 02:14:15 Yes
98 Aimhigh Loft - CA 0107-AU18-FMT Aim-Blue/7 SLWF H 1 12:04:56.10 3.773 02:15:45 Yes
99 Sierra Ranch - CA 0825-AU18-SR Danny Boy BC H 3 12:05:39.30 3.754 02:16:27 Yes
100 Peach Classic - GA 18009-AU18-PEAC BBSP H 1 12:06:29.70 3.732 02:17:17 Yes

There are 394 bird records

Note: These Race Results are unofficial and subject to change until verified by the Race Committee and declared final.